Showing default

HYPERFIELD-1A, 60562

Orbit data source: Space-Track

HYPERFIELD-1A, 60562 is a payload satellite owned by Kuva Space (FI) in SSO that was launched on Fri, 16 Aug 2024 UTC via an FALCON 9 launch vehicle from the Air Force Western Test Range (AFWTR). Payload-class satellites include a variety of spacecraft equipped with specific instruments for various scientific and technological missions. These include communications satellites like Starlink; space stations such as the ISS; scientific satellites like the Hubble; Earth observation satellites from companies like Planet Labs, Umbra, and HawkEye 360; GPS; miniature CubeSats for education and research; and military/defense satellites.

Loading next visibility...
Identifier
60562, 2024-149CY
Orbit
SSO
Country
Flag of FIFI / FIN
Related business
Manufacturer
Kuva Space
Mission
Operational Commercial Imaging
Bus & Motor
CUBESAT 6U, Unknown motor
Mass
12 kg wet, 12 kg dry
Launch date (UTC)
2024-08-16 (1 year ago)
Launch vehicle
FALCON 9
Launch site
Air Force Western Test Range (AFWTR)
Object type
Payload
Rocket body
Debris
Shape & HBR
Box + 2 Pan, 0.2 m
Radar Cross Section
0.092 m², Medium (>0.1 m² and < 1m²)

Expand to show TLE details & history
Last TLE update: 21 hours ago

TLE from 21 hours ago
0 HYPERFIELD-1A
1 60562U 24149CY  26034.21891456  .00008637  00000-0  30822-3 0  9992
2 60562  97.3914 115.1844 0006737  71.9580 288.2393 15.29094189 81553
Epoch: 2026-02-03T05:15Z
TLE epoch observation values (Epoch: 2026-02-03T05:15:14.217Z)
Latitude
-0.00012°
Longitude
-97.02782°
Altitude
480.179 km
Speed
7.626 km/s
True Right ascension
07h 40m 44s
True Declination
0° 00' 00"
Sunlit
Object was in full shadow at epoch
Visualization orbit readout
Latitude
Unknown
Longitude
Unknown
Altitude
Unknown
Speed
Unknown
Apparent Right ascension
Unknown
Apparent Declination
Unknown
Sunlit
N/A
Visualization observer readout
Local Sidereal Time
04:25:47
Azimuth
Unknown
Elevation
Unknown
Doppler factor
Unknown
Orbital elements
Apogee altitude
480.089 km
Perigee altitude
470.855 km
Semi-major axis
6,853.609 km
Eccentricity
0.00067
Inclination
97.3914°
RAAN
115.1844°
Arg. of periapsis
71.958°
True anomaly
288.16596°
Mean anomaly
288.2393°
Eccentric anomaly
288.20263°
Mean motion
3.82529 °/min
Orbital period
94.11 mins
BSTAR
0.00030822
Loading maneuver chart data...
Computing Atmospheric mass density...
Loading historical data...
Loading historical data...
Loading historical data...
Loading historical data...
Loading historical data...
Loading historical data...
Loading historical data...

Documentation

Showing up to 5 results
|